FW1695 Weather Reports


time (UTC)temp
C
wind
direction
speed
KPH
gust
KPH
rain 1hr
cm
rain 24hr
cm
rain mn
cm
humidity
%
barometer
mb
20260503055020 16 242 0.0 6.4 0.00 0.00 0.00 80 1009.2
20260503054529 16 301 0.0 6.4 0.00 0.00 0.00 80 1009.2
20260503054022 16 322 1.6 4.8 0.00 0.00 0.00 80 1009.2
20260503053519 16 281 0.0 4.8 0.00 0.00 0.00 80 1009.1
20260503053018 16 294 0.0 4.8 0.00 0.00 0.00 80 1009.1
20260503052518 16 290 0.0 8.0 0.00 0.00 0.00 79 1009.0
20260503052022 16 335 3.2 8.0 0.00 0.00 0.00 79 1009.0
20260503051516 16 319 0.0 6.4 0.00 0.00 0.00 79 1009.0
20260503051016 16 295 0.0 9.7 0.00 0.00 0.00 79 1008.9
20260503050516 16 308 3.2 9.7 0.00 0.00 0.00 79 1008.8
20260503050016 16 295 0.0 8.0 0.00 0.00 0.00 78 1008.8
20260503045517 17 332 3.2 8.0 0.00 0.00 0.00 78 1008.6
20260503045011 17 343 0.0 6.4 0.00 0.00 0.00 77 1008.6
20260503044513 17 70 0.0 4.8 0.00 0.00 0.00 76 1008.5
20260503044011 17 68 0.0 0.0 0.00 0.00 0.00 76 1008.4
20260503043510 17 84 0.0 0.0 0.00 0.00 0.00 76 1008.3
20260503043010 17 242 0.0 0.0 0.00 0.00 0.00 76 1008.3
20260503042509 17 243 0.0 0.0 0.00 0.00 0.00 76 1008.1
20260503042009 17 243 0.0 0.0 0.00 0.00 0.00 76 1008.2
20260503041508 17 185 0.0 1.6 0.00 0.00 0.00 76 1008.1
20260503041007 17 186 0.0 4.8 0.00 0.00 0.00 76 1008.0
20260503040511 17 204 0.0 4.8 0.00 0.00 0.00 77 1007.9
20260503040006 17 233 0.0 4.8 0.00 0.00 0.00 77 1007.8
20260503035505 17 220 0.0 9.7 0.00 0.00 0.00 77 1007.6
20260503035006 17 231 0.0 9.7 0.00 0.00 0.00 77 1007.6
20260503034503 17 238 1.6 8.0 0.00 0.00 0.00 76 1007.5
20260503034003 17 238 1.6 8.0 0.00 0.00 0.00 76 1007.4
20260503033501 17 217 0.0 9.7 0.00 0.00 0.00 75 1007.3
20260503033002 17 238 1.6 9.7 0.00 0.00 0.00 76 1007.1
20260503032602 17 75 0.0 8.0 0.00 0.00 0.00 75 1007.1
20260503032102 17 139 1.6 8.0 0.00 0.00 0.00 75 1006.8
20260503031559 17 118 0.0 12.9 0.00 0.00 0.00 74 1006.5
20260503031058 18 155 4.8 12.9 0.00 0.00 0.00 74 1006.3
20260503030558 18 153 0.0 14.5 0.00 0.00 0.00 74 1006.0
20260503030057 17 172 1.6 17.7 0.00 0.00 0.00 75 1005.7
20260503025558 17 219 6.4 25.7 0.00 0.00 0.00 75 1005.4
20260503025058 17 200 8.0 25.7 0.00 0.00 0.00 75 1005.1
20260503024557 18 206 8.0 19.3 0.00 0.00 0.00 73 1005.1
20260503024056 18 233 4.8 17.7 0.00 0.00 0.00 72 1005.0
20260503023556 18 177 4.8 17.7 0.00 0.00 0.00 72 1004.9
20260503023058 18 179 6.4 19.3 0.00 0.00 0.00 70 1004.5
20260503022555 19 232 8.0 19.3 0.00 0.00 0.00 70 1004.3
20260503022057 20 170 6.4 17.7 0.00 0.00 0.00 68 1004.1
20260503021554 20 229 6.4 19.3 0.00 0.00 0.00 67 1003.9
20260503021055 20 231 9.7 20.9 0.00 0.00 0.00 65 1003.7
20260503020555 21 197 3.2 20.9 0.00 0.00 0.00 63 1003.7
20260503020057 22 222 3.2 16.1 0.00 0.00 0.00 60 1003.5
20260503015554 22 169 3.2 20.9 0.00 0.00 0.00 57 1003.2
20260503015058 23 155 8.0 20.9 0.00 0.00 0.00 54 1002.9
20260503014605 24 147 0.0 19.3 0.00 0.00 0.00 49 1002.8
20260503014054 25 240 8.0 19.3 0.00 0.00 0.00 49 1002.7
20260503013552 26 182 11.3 19.3 0.00 0.00 0.00 40 1002.6
20260503013052 27 317 0.0 0.0 0.00 0.00 0.00 25 1002.2
20260503012555 27 317 0.0 8.0 0.00 0.00 0.00 25 1002.1
20260503012053 28 319 0.0 8.0 0.00 0.00 0.00 25 1002.0
20260503011552 28 109 0.0 8.0 0.00 0.00 0.00 25 1002.0
20260503011054 28 57 0.0 4.8 0.00 0.00 0.00 24 1001.9
20260503010551 28 77 0.0 9.7 0.00 0.00 0.00 24 1001.8
20260503010052 28 84 1.6 9.7 0.00 0.00 0.00 24 1001.8
20260503005554 29 136 1.6 8.0 0.00 0.00 0.00 24 1001.7
20260503005051 29 28 0.0 8.0 0.00 0.00 0.00 24 1001.7
20260503004550 29 75 1.6 8.0 0.00 0.00 0.00 24 1001.6
20260503004050 29 125 0.0 9.7 0.00 0.00 0.00 24 1001.5
20260503003550 30 85 1.6 11.3 0.00 0.00 0.00 23 1001.5
20260503003056 30 57 1.6 14.5 0.00 0.00 0.00 24 1001.3
20260503002549 30 77 0.0 14.5 0.00 0.00 0.00 22 1001.3
20260503002049 30 25 4.8 14.5 0.00 0.00 0.00 21 1001.2
20260503001607 30 57 3.2 14.5 0.00 0.00 0.00 21 1001.1
20260503001049 31 63 1.6 12.9 0.00 0.00 0.00 21 1000.9
20260503000549 31 33 4.8 11.3 0.00 0.00 0.00 21 1000.9
20260503000051 31 82 0.0 12.9 0.00 0.00 0.00 21 1000.8
20260502235548 31 294 3.2 19.3 0.00 0.00 0.00 21 1000.8
20260502235048 31 136 3.2 19.3 0.00 0.00 0.00 21 1000.7
20260502234551 31 63 3.2 14.5 0.00 0.00 0.00 22 1000.6
20260502234048 31 90 0.0 14.5 0.00 0.00 0.00 22 1000.6
20260502233547 31 77 3.2 24.1 0.00 0.00 0.00 22 1000.6
20260502233047 31 71 8.0 24.1 0.00 0.00 0.00 21 1000.6
20260502232546 31 87 3.2 14.5 0.00 0.00 0.00 21 1000.6
20260502232047 31 43 4.8 14.5 0.00 0.00 0.00 21 1000.7
20260502231546 31 51 6.4 14.5 0.00 0.00 0.00 21 1000.6
20260502231047 31 82 1.6 17.7 0.00 0.00 0.00 21 1000.8
20260502230547 31 130 4.8 19.3 0.00 0.00 0.00 20 1000.6
20260502230046 31 94 6.4 22.5 0.00 0.00 0.00 21 1000.7
20260502225545 31 83 9.7 22.5 0.00 0.00 0.00 20 1000.6
20260502225044 32 41 4.8 17.7 0.00 0.00 0.00 20 1000.7
20260502224544 31 181 6.4 19.3 0.00 0.00 0.00 21 1000.7
20260502224045 32 124 8.0 22.5 0.00 0.00 0.00 21 1000.6
20260502223542 32 98 4.8 24.1 0.00 0.00 0.00 21 1000.6
20260502223043 32 75 4.8 24.1 0.00 0.00 0.00 22 1000.7
20260502222542 32 349 4.8 19.3 0.00 0.00 0.00 22 1000.9
20260502222046 32 225 6.4 19.3 0.00 0.00 0.00 22 1000.9
20260502221546 32 63 3.2 19.3 0.00 0.00 0.00 22 1000.9
20260502221041 31 51 6.4 19.3 0.00 0.00 0.00 22 1001.1
20260502220540 32 331 4.8 22.5 0.00 0.00 0.00 22 1001.1
20260502220040 31 320 8.0 22.5 0.00 0.00 0.00 22 1001.1
20260502215539 32 40 4.8 19.3 0.00 0.00 0.00 22 1001.1
20260502215038 31 331 4.8 20.9 0.00 0.00 0.00 22 1001.1
20260502214547 31 316 8.0 20.9 0.00 0.00 0.00 22 1001.2
20260502214037 31 84 3.2 24.1 0.00 0.00 0.00 22 1001.4
20260502213539 31 315 9.7 24.1 0.00 0.00 0.00 22 1001.3
20260502213040 32 67 11.3 22.5 0.00 0.00 0.00 22 1001.3
20260502212537 32 333 4.8 19.3 0.00 0.00 0.00 22 1001.4
20260502212036 32 102 4.8 19.3 0.00 0.00 0.00 22 1001.4
20260502211536 32 50 8.0 19.3 0.00 0.00 0.00 22 1001.4
20260502211035 32 51 1.6 16.1 0.00 0.00 0.00 22 1001.6
20260502210533 31 132 3.2 16.1 0.00 0.00 0.00 23 1001.5
20260502210034 31 155 3.2 16.1 0.00 0.00 0.00 22 1001.7
20260502205532 32 87 1.6 14.5 0.00 0.00 0.00 22 1001.7
20260502205032 31 273 3.2 14.5 0.00 0.00 0.00 22 1001.9
20260502204534 31 306 3.2 17.7 0.00 0.00 0.00 22 1001.9
20260502204029 31 287 8.0 17.7 0.00 0.00 0.00 21 1002.0
20260502203528 31 59 6.4 14.5 0.00 0.00 0.00 22 1002.2
20260502203028 31 108 6.4 17.7 0.00 0.00 0.00 21 1002.2
20260502202527 31 70 4.8 17.7 0.00 0.00 0.00 21 1002.4
20260502202026 31 72 6.4 17.7 0.00 0.00 0.00 21 1002.4
20260502201527 31 287 0.0 9.7 0.00 0.00 0.00 21 1002.5
20260502201025 31 334 1.6 19.3 0.00 0.00 0.00 22 1002.7
20260502200526 31 76 3.2 19.3 0.00 0.00 0.00 22 1002.8
20260502200026 31 82 6.4 17.7 0.00 0.00 0.00 21 1002.9
20260502195527 31 95 6.4 17.7 0.00 0.00 0.00 21 1003.0
20260502195023 31 103 0.0 17.7 0.00 0.00 0.00 22 1003.0
20260502194528 31 141 4.8 17.7 0.00 0.00 0.00 22 1003.0
20260502194026 31 324 8.0 17.7 0.00 0.00 0.00 23 1003.0
20260502193524 31 138 3.2 19.3 0.00 0.00 0.00 22 1003.1
20260502193021 30 142 3.2 22.5 0.00 0.00 0.00 22 1003.3
20260502192522 30 245 9.7 22.5 0.00 0.00 0.00 23 1002.9
20260502192023 30 337 4.8 14.5 0.00 0.00 0.00 23 1003.6
20260502191519 30 319 4.8 17.7 0.00 0.00 0.00 23 1003.8
20260502191019 30 323 0.0 17.7 0.00 0.00 0.00 25 1003.9
20260502190519 30 76 3.2 17.7 0.00 0.00 0.00 25 1004.0
20260502190020 30 349 1.6 11.3 0.00 0.00 0.00 25 1004.1
20260502185522 30 266 1.6 12.9 0.00 0.00 0.00 24 1004.1
20260502185018 31 34 3.2 12.9 0.00 0.00 0.00 24 1004.2
20260502184521 30 2 0.0 8.0 0.00 0.00 0.00 25 1004.4
20260502184015 30 90 0.0 0.0 0.00 0.00 0.00 26 1004.4
20260502183514 29 167 0.0 6.4 0.00 0.00 0.00 26 1004.6
20260502183015 28 172 0.0 11.3 0.00 0.00 0.00 27 1004.8
20260502182514 28 29 1.6 11.3 0.00 0.00 0.00 27 1004.9
20260502182014 28 238 3.2 9.7 0.00 0.00 0.00 27 1004.9
20260502181513 29 259 3.2 9.7 0.00 0.00 0.00 26 1005.1
20260502181015 29 76 1.6 9.7 0.00 0.00 0.00 26 1005.1
20260502180512 29 110 0.0 4.8 0.00 0.00 0.00 27 1005.2
20260502170505 -17 0.0 0.0 0.00 0.00 0.00 1006.0
20260502164002 -17 0.0 0.0 0.00 0.00 0.00 1006.2
20260502163501 -17 0.0 0.0 0.00 0.00 0.00 1006.2
20260502163002 -17 0.0 0.0 0.00 0.00 0.00 1006.3
20260502162501 -17 0.0 0.0 0.00 0.00 0.00 1006.4
20260502162003 -17 0.0 0.0 0.00 0.00 0.00 1006.5
20260502161502 -17 0.0 0.0 0.00 0.00 0.00 1006.5
20260502161003 -17 0.0 0.0 0.00 0.00 0.00 1006.4
20260502160501 -17 0.0 0.0 0.00 0.00 0.00 1006.6
20260502152050 -17 0.0 0.0 0.00 0.00 0.00 1006.6
20260502151553 -17 0.0 0.0 0.00 0.00 0.00 1006.6
20260502151048 -17 0.0 0.0 0.00 0.00 0.00 1006.6
20260502150547 -17 0.0 0.0 0.00 0.00 0.00 1006.5
20260502071536 21 295 0.0 0.0 0.00 0.00 0.00 35 1002.7
20260502071036 21 294 0.0 0.0 0.00 0.00 0.00 35 1002.7
20260502070536 21 316 0.0 3.2 0.00 0.00 0.00 35 1002.7
20260502070046 21 316 0.0 4.8 0.00 0.00 0.00 35 1002.6
20260502065533 21 268 0.0 4.8 0.00 0.00 0.00 34 1002.6
20260502065032 22 296 0.0 1.6 0.00 0.00 0.00 34 1002.6
20260502064531 22 297 0.0 1.6 0.00 0.00 0.00 34 1002.5
20260502064030 22 297 0.0 1.6 0.00 0.00 0.00 34 1002.6
20260502063531 22 298 0.0 3.2 0.00 0.00 0.00 34 1002.6
20260502063032 22 318 0.0 4.8 0.00 0.00 0.00 34 1002.7
20260502062528 22 335 0.0 6.4 0.00 0.00 0.00 33 1002.7